Location: Kaseke
(18.0171°S, 31.0526°E)
Time: 12:38:35
(UTC+00:00)

Maqsat-H - Pass Details

Date: 14 July 2020
Orbit: 581 x 26392 km, 7.7° (Epoch: 07 August)

Event Time Altitude Azimuth Distance (km) Brightness Sun altitude
Rises 01:37:43 0° 278° (W) 16,159 8.3 -39.3°
Enters shadow 01:43:29 - 279° (W) 14,721 8.1 -38.0°
Exits shadow 02:16:37 29° 300° (WNW) 3,824 5.1 -30.4°
Maximum altitude 02:22:01 43° 348° (NNW) 2,019 4.0 -29.1°
Drops below altitude 10° 02:27:01 10° 61° (ENE) 2,452 5.5 -28.0°
Sets 02:28:41 0° 70° (ENE) 3,083 6.4 -27.6°
